Year,Month,Day,Hour,Minute,Value (Times are PST for temperature in C)
2015,03,01,00,00,3.60
2015,03,01,00,01,3.60
2015,03,01,00,02,3.60
2015,03,01,00,03,3.60
2015,03,01,00,04,3.60
2015,03,01,00,05,3.70
2015,03,01,00,06,3.70
2015,03,01,00,07,3.70
2015,03,01,00,08,3.70
2015,03,01,00,09,3.70
2015,03,01,00,10,3.60
2015,03,01,00,11,3.60
2015,03,01,00,12,3.60
2015,03,01,00,13,3.60
2015,03,01,00,14,3.60
2015,03,01,00,15,3.60
2015,03,01,00,16,3.60
2015,03,01,00,17,3.50
2015,03,01,00,18,3.50
2015,03,01,00,19,3.50
2015,03,01,00,20,3.50
2015,03,01,00,21,3.40
2015,03,01,00,22,3.40
2015,03,01,00,23,3.40
2015,03,01,00,24,3.40
2015,03,01,00,25,3.40
2015,03,01,00,26,3.40
2015,03,01,00,27,3.40
2015,03,01,00,28,3.40
2015,03,01,00,29,3.40
2015,03,01,00,30,3.40
2015,03,01,00,31,3.40
2015,03,01,00,32,3.40
2015,03,01,00,33,3.40
2015,03,01,00,34,3.40
2015,03,01,00,35,3.50
2015,03,01,00,36,3.50
2015,03,01,00,37,3.50
2015,03,01,00,38,3.50
2015,03,01,00,39,3.50
2015,03,01,00,40,3.50
2015,03,01,00,41,3.50
2015,03,01,00,42,3.50
2015,03,01,00,43,3.40
2015,03,01,00,44,3.40
2015,03,01,00,45,3.40
2015,03,01,00,46,3.40
2015,03,01,00,47,3.40
2015,03,01,00,48,3.40
2015,03,01,00,49,3.40
2015,03,01,00,50,3.40
2015,03,01,00,51,3.40
2015,03,01,00,52,3.40
2015,03,01,00,53,3.50
2015,03,01,00,54,3.50
2015,03,01,00,55,3.50
2015,03,01,00,56,3.50
2015,03,01,00,57,3.60
2015,03,01,00,58,3.60
2015,03,01,00,59,3.60
2015,03,01,01,00,3.60
2015,03,01,01,01,3.60
2015,03,01,01,02,3.60
2015,03,01,01,03,3.60
2015,03,01,01,04,3.60
2015,03,01,01,05,3.60
2015,03,01,01,06,3.60
2015,03,01,01,07,3.60
2015,03,01,01,08,3.60
2015,03,01,01,09,3.60
2015,03,01,01,10,3.50
2015,03,01,01,11,3.50
2015,03,01,01,12,3.50
2015,03,01,01,13,3.50
2015,03,01,01,14,3.40
2015,03,01,01,15,3.40
2015,03,01,01,16,3.30
2015,03,01,01,17,3.30
2015,03,01,01,18,3.20
2015,03,01,01,19,3.10
2015,03,01,01,20,3.10
2015,03,01,01,21,3.00
2015,03,01,01,22,3.00
2015,03,01,01,23,2.90
2015,03,01,01,24,2.90
2015,03,01,01,25,2.80
2015,03,01,01,26,2.80
2015,03,01,01,27,2.70
2015,03,01,01,28,2.70
2015,03,01,01,29,2.60
2015,03,01,01,30,2.60
2015,03,01,01,31,2.50
2015,03,01,01,32,2.50
2015,03,01,01,33,2.50
2015,03,01,01,34,2.40
2015,03,01,01,35,2.40
2015,03,01,01,36,2.40
2015,03,01,01,37,2.30
2015,03,01,01,38,2.30
2015,03,01,01,39,2.30
2015,03,01,01,40,2.30
2015,03,01,01,41,2.30
2015,03,01,01,42,2.30
2015,03,01,01,43,2.30
2015,03,01,01,44,2.20
2015,03,01,01,45,2.20
2015,03,01,01,46,2.20
2015,03,01,01,47,2.30
2015,03,01,01,48,2.20
2015,03,01,01,49,2.20
2015,03,01,01,50,2.30
2015,03,01,01,51,2.30
2015,03,01,01,52,2.40
2015,03,01,01,53,2.50
2015,03,01,01,54,2.60
2015,03,01,01,55,2.60
2015,03,01,01,56,2.70
2015,03,01,01,57,2.70
2015,03,01,01,58,2.70
2015,03,01,01,59,2.80
2015,03,01,02,00,2.80
2015,03,01,02,01,2.80
2015,03,01,02,02,2.80
2015,03,01,02,03,2.80
2015,03,01,02,04,2.80
2015,03,01,02,05,2.80
2015,03,01,02,06,2.80
2015,03,01,02,07,2.80
2015,03,01,02,08,2.80
2015,03,01,02,09,2.80
2015,03,01,02,10,2.70
2015,03,01,02,11,2.70
2015,03,01,02,12,2.70
2015,03,01,02,13,2.60
2015,03,01,02,14,2.60
2015,03,01,02,15,2.50
2015,03,01,02,16,2.50
2015,03,01,02,17,2.40
2015,03,01,02,18,2.30
2015,03,01,02,19,2.30
2015,03,01,02,20,2.30
2015,03,01,02,21,2.20
2015,03,01,02,22,2.20
2015,03,01,02,23,2.20
2015,03,01,02,24,2.20
2015,03,01,02,25,2.10
2015,03,01,02,26,2.10
2015,03,01,02,27,2.10
2015,03,01,02,28,2.10
2015,03,01,02,29,2.10
2015,03,01,02,30,2.10
2015,03,01,02,31,2.10
2015,03,01,02,32,2.10
2015,03,01,02,33,2.10
2015,03,01,02,34,2.10
2015,03,01,02,35,2.10
2015,03,01,02,36,2.10
2015,03,01,02,37,2.10
2015,03,01,02,38,2.10
2015,03,01,02,39,2.00
2015,03,01,02,40,2.00
2015,03,01,02,41,2.00
2015,03,01,02,42,2.00
2015,03,01,02,43,2.00
2015,03,01,02,44,2.00
2015,03,01,02,45,2.00
2015,03,01,02,46,2.00
2015,03,01,02,47,2.00
2015,03,01,02,48,1.90
2015,03,01,02,49,1.90
2015,03,01,02,50,1.90
2015,03,01,02,51,1.90
2015,03,01,02,52,1.90
2015,03,01,02,53,1.90
2015,03,01,02,54,1.80
2015,03,01,02,55,1.80
2015,03,01,02,56,1.80
2015,03,01,02,57,1.80
2015,03,01,02,58,1.80
2015,03,01,02,59,1.80
2015,03,01,03,00,1.80
2015,03,01,03,01,1.80
2015,03,01,03,02,1.80
2015,03,01,03,03,1.80
2015,03,01,03,04,1.80
2015,03,01,03,05,1.70
2015,03,01,03,06,1.70
2015,03,01,03,07,1.60
2015,03,01,03,08,1.60
2015,03,01,03,09,1.60
2015,03,01,03,10,1.50
2015,03,01,03,11,1.50
2015,03,01,03,12,1.50
2015,03,01,03,13,1.40
2015,03,01,03,14,1.40
2015,03,01,03,15,1.30
2015,03,01,03,16,1.30
2015,03,01,03,17,1.30
2015,03,01,03,18,1.20
2015,03,01,03,19,1.20
2015,03,01,03,20,1.10
2015,03,01,03,21,1.10
2015,03,01,03,22,1.00
2015,03,01,03,23,0.90
2015,03,01,03,24,0.90
2015,03,01,03,25,0.80
2015,03,01,03,26,0.80
2015,03,01,03,27,0.80
2015,03,01,03,28,0.80
2015,03,01,03,29,0.80
2015,03,01,03,30,0.80
2015,03,01,03,31,0.80
2015,03,01,03,32,0.70
2015,03,01,03,33,0.70
2015,03,01,03,34,0.70
2015,03,01,03,35,0.70
2015,03,01,03,36,0.60
2015,03,01,03,37,0.60
2015,03,01,03,38,0.60
2015,03,01,03,39,0.60
2015,03,01,03,40,0.60
2015,03,01,03,41,0.60
2015,03,01,03,42,0.60
2015,03,01,03,43,0.60
2015,03,01,03,44,0.60
2015,03,01,03,45,0.60
2015,03,01,03,46,0.60
2015,03,01,03,47,0.60
2015,03,01,03,48,0.60
2015,03,01,03,49,0.50
2015,03,01,03,50,0.50
2015,03,01,03,51,0.50
2015,03,01,03,52,0.60
2015,03,01,03,53,0.70
2015,03,01,03,54,0.70
2015,03,01,03,55,0.80
2015,03,01,03,56,0.80
2015,03,01,03,57,0.90
2015,03,01,03,58,1.00
2015,03,01,03,59,1.10
2015,03,01,04,00,1.10
2015,03,01,04,01,1.20
2015,03,01,04,02,1.30
2015,03,01,05,02,1.70
2015,03,01,05,03,1.70
2015,03,01,05,04,1.70
2015,03,01,05,05,1.70
2015,03,01,05,06,1.70
2015,03,01,05,07,1.70
2015,03,01,05,08,1.70
2015,03,01,05,09,1.70
2015,03,01,05,10,1.70
2015,03,01,05,11,1.70
2015,03,01,05,12,1.70
2015,03,01,05,13,1.70
2015,03,01,05,14,1.60
2015,03,01,05,15,1.60
2015,03,01,05,16,1.60
2015,03,01,05,17,1.70
2015,03,01,05,18,1.70
2015,03,01,05,19,1.70
2015,03,01,05,20,1.70
2015,03,01,05,21,1.70
2015,03,01,05,22,1.80
2015,03,01,05,23,1.80
2015,03,01,05,24,1.80
2015,03,01,05,25,1.80
2015,03,01,05,26,1.80
2015,03,01,05,27,1.80
2015,03,01,05,28,1.80
2015,03,01,05,29,1.80
2015,03,01,05,30,1.70
2015,03,01,05,31,1.70
2015,03,01,05,32,1.70
2015,03,01,05,33,1.70
2015,03,01,05,34,1.70
2015,03,01,05,35,1.70
2015,03,01,05,36,1.70
2015,03,01,05,37,1.70
2015,03,01,05,38,1.80
2015,03,01,05,39,1.80
2015,03,01,05,40,1.80
2015,03,01,05,41,1.80
2015,03,01,05,42,1.80
2015,03,01,05,43,1.80
2015,03,01,05,44,1.90
2015,03,01,05,45,1.90
2015,03,01,05,46,1.80
2015,03,01,05,47,1.80
2015,03,01,05,48,1.80
2015,03,01,05,49,1.80
2015,03,01,05,50,1.80
2015,03,01,05,51,1.80
2015,03,01,05,52,1.80
2015,03,01,05,53,1.80
2015,03,01,05,54,1.80
2015,03,01,05,55,1.70
2015,03,01,05,56,1.70
2015,03,01,05,57,1.70
2015,03,01,05,58,1.70
2015,03,01,05,59,1.70
2015,03,01,06,00,1.70
2015,03,01,06,01,1.70
2015,03,01,06,02,1.70
2015,03,01,06,03,1.70
2015,03,01,06,04,1.70
2015,03,01,06,05,1.70
2015,03,01,06,06,1.70
2015,03,01,06,07,1.80
2015,03,01,06,08,1.80
2015,03,01,06,09,1.80
2015,03,01,06,10,1.80
2015,03,01,06,11,1.80
2015,03,01,06,12,1.80
2015,03,01,06,13,1.80
2015,03,01,06,14,1.80
2015,03,01,06,15,1.80
2015,03,01,06,16,1.80
2015,03,01,06,17,1.80
2015,03,01,06,18,1.80
2015,03,01,06,19,1.80
2015,03,01,06,20,1.80
2015,03,01,06,21,1.80
2015,03,01,06,22,1.80
2015,03,01,06,23,1.80
2015,03,01,06,24,1.80
2015,03,01,06,25,1.80
2015,03,01,06,26,1.80
2015,03,01,06,27,1.80
2015,03,01,06,28,1.80
2015,03,01,06,29,1.80
2015,03,01,06,30,1.80
2015,03,01,06,31,1.80
2015,03,01,06,32,1.80
2015,03,01,06,33,1.80
2015,03,01,06,34,1.80
2015,03,01,06,35,1.80
2015,03,01,06,36,1.80
2015,03,01,06,37,1.70
2015,03,01,06,38,1.70
2015,03,01,06,39,1.70
2015,03,01,06,40,1.70
2015,03,01,06,41,1.60
2015,03,01,06,42,1.60
2015,03,01,06,43,1.60
2015,03,01,06,44,1.70
2015,03,01,06,45,1.70
2015,03,01,06,46,1.70
2015,03,01,06,47,1.70
2015,03,01,06,48,1.70
2015,03,01,06,49,1.70
2015,03,01,06,50,1.70
2015,03,01,06,51,1.70
2015,03,01,06,52,1.70
2015,03,01,06,53,1.70
2015,03,01,06,54,1.70
2015,03,01,06,55,1.70
2015,03,01,06,56,1.70
2015,03,01,06,57,1.70
2015,03,01,06,58,1.70
2015,03,01,06,59,1.60
2015,03,01,07,00,1.60
2015,03,01,07,01,1.60
2015,03,01,07,02,1.70
2015,03,01,07,03,1.70
2015,03,01,07,04,1.70
2015,03,01,07,05,1.80
2015,03,01,07,06,1.80
2015,03,01,07,07,1.80
2015,03,01,07,08,1.80
2015,03,01,07,09,1.80
2015,03,01,07,10,1.80
2015,03,01,07,11,1.80
2015,03,01,07,12,1.80
2015,03,01,07,13,1.80
2015,03,01,07,14,1.80
2015,03,01,07,15,1.80
2015,03,01,07,16,1.80
2015,03,01,07,17,1.90
2015,03,01,07,18,1.90
2015,03,01,07,19,1.90
2015,03,01,07,20,1.90
2015,03,01,07,21,1.90
2015,03,01,07,22,1.90
2015,03,01,07,23,1.90
2015,03,01,07,24,1.90
2015,03,01,07,25,1.90
2015,03,01,07,26,1.90
2015,03,01,07,27,1.90
2015,03,01,07,28,1.90
2015,03,01,07,29,1.90
2015,03,01,07,30,1.90
2015,03,01,07,31,1.90
2015,03,01,07,32,1.90
2015,03,01,07,33,1.90
2015,03,01,07,34,1.90
2015,03,01,07,35,1.90
2015,03,01,07,36,1.90
2015,03,01,07,37,1.90
2015,03,01,07,38,1.90
2015,03,01,07,39,1.90
2015,03,01,07,40,1.90
2015,03,01,07,41,1.90
2015,03,01,07,42,1.80
2015,03,01,07,43,1.80
2015,03,01,07,44,1.80
2015,03,01,07,45,1.80
2015,03,01,07,46,1.80
2015,03,01,07,47,1.80
2015,03,01,07,48,1.80
2015,03,01,07,49,1.80
2015,03,01,07,50,1.80
2015,03,01,07,51,1.80
2015,03,01,07,52,1.70
2015,03,01,07,53,1.70
2015,03,01,07,54,1.70
2015,03,01,07,55,1.70
2015,03,01,07,56,1.70
2015,03,01,07,57,1.70
2015,03,01,07,58,1.70
2015,03,01,07,59,1.70
2015,03,01,08,00,1.60
2015,03,01,08,01,1.60
2015,03,01,08,02,1.60
2015,03,01,08,03,1.60
2015,03,01,08,04,1.60
2015,03,01,08,05,1.50
2015,03,01,08,06,1.50
2015,03,01,08,07,1.50
2015,03,01,08,08,1.40
2015,03,01,08,09,1.40
2015,03,01,08,10,1.40
2015,03,01,08,11,1.40
2015,03,01,08,12,1.40
2015,03,01,08,13,1.40
2015,03,01,08,14,1.40
2015,03,01,08,15,1.40
2015,03,01,08,16,1.40
2015,03,01,08,17,1.40
2015,03,01,08,18,1.40
2015,03,01,08,19,1.40
2015,03,01,08,20,1.40
2015,03,01,08,21,1.40
2015,03,01,08,22,1.50
2015,03,01,08,23,1.50
2015,03,01,08,24,1.60
2015,03,01,08,25,1.60
2015,03,01,08,26,1.60
2015,03,01,08,27,1.60
2015,03,01,08,28,1.70
2015,03,01,08,29,1.70
2015,03,01,08,30,1.70
2015,03,01,08,31,1.80
2015,03,01,08,32,1.80
2015,03,01,08,33,1.80
2015,03,01,08,34,1.90
2015,03,01,08,35,1.90
2015,03,01,08,36,2.00
2015,03,01,08,37,2.00
2015,03,01,08,38,2.10
2015,03,01,08,39,2.10
2015,03,01,08,40,2.10
2015,03,01,08,41,2.20
2015,03,01,08,42,2.20
2015,03,01,08,43,2.30
2015,03,01,08,44,2.30
2015,03,01,08,45,2.40
2015,03,01,08,46,2.40
2015,03,01,08,47,2.40
2015,03,01,08,48,2.50
2015,03,01,08,49,2.50
2015,03,01,08,50,2.60
2015,03,01,08,51,2.60
2015,03,01,08,52,2.60
2015,03,01,08,53,2.60
2015,03,01,08,54,2.70
2015,03,01,08,55,2.70
2015,03,01,08,56,2.80
2015,03,01,08,57,2.80
2015,03,01,08,58,2.80
2015,03,01,08,59,2.90
2015,03,01,09,00,2.90
2015,03,01,09,01,2.90
2015,03,01,09,02,3.00
2015,03,01,09,03,3.00
2015,03,01,09,04,3.00
2015,03,01,09,05,3.10
2015,03,01,09,06,3.10
2015,03,01,09,07,3.10
2015,03,01,09,08,3.20
2015,03,01,09,09,3.20
2015,03,01,09,10,3.20
2015,03,01,09,11,3.20
2015,03,01,09,12,3.30
2015,03,01,09,13,3.30
2015,03,01,09,14,3.30
2015,03,01,09,15,3.30
2015,03,01,09,16,3.30
2015,03,01,09,17,3.40
2015,03,01,09,18,3.40
2015,03,01,09,19,3.40
2015,03,01,09,20,3.40
2015,03,01,09,21,3.50
2015,03,01,09,22,3.50
2015,03,01,09,23,3.50
2015,03,01,09,24,3.50
2015,03,01,09,25,3.60
2015,03,01,09,26,3.60
2015,03,01,09,27,3.60
2015,03,01,09,28,3.60
2015,03,01,09,29,3.70
2015,03,01,09,30,3.70
2015,03,01,09,31,3.70
2015,03,01,09,32,3.70
2015,03,01,09,33,3.80
2015,03,01,09,34,3.80
2015,03,01,09,35,3.80
2015,03,01,09,36,3.90
2015,03,01,09,37,3.90
2015,03,01,09,38,3.90
2015,03,01,09,39,3.90
2015,03,01,09,40,4.00
2015,03,01,09,41,4.00
2015,03,01,09,42,4.10
2015,03,01,09,43,4.10
2015,03,01,09,44,4.20
2015,03,01,09,45,4.20
2015,03,01,09,46,4.20
2015,03,01,09,47,4.30
2015,03,01,09,48,4.30
2015,03,01,09,49,4.30
2015,03,01,09,50,4.40
2015,03,01,09,51,4.40
2015,03,01,09,52,4.40
2015,03,01,09,53,4.40
2015,03,01,09,54,4.50
2015,03,01,09,55,4.50
2015,03,01,09,56,4.60
2015,03,01,09,57,4.60
2015,03,01,09,58,4.60
2015,03,01,09,59,4.70
2015,03,01,10,00,4.70
2015,03,01,10,01,4.70
2015,03,01,10,02,4.80
2015,03,01,10,03,4.80
2015,03,01,10,04,4.90
2015,03,01,10,05,4.90
2015,03,01,10,06,5.00
2015,03,01,10,07,5.00
2015,03,01,10,08,5.00
2015,03,01,10,09,5.00
2015,03,01,10,10,5.10
2015,03,01,10,11,5.10
2015,03,01,10,12,5.10
2015,03,01,10,13,5.20
2015,03,01,10,14,5.20
2015,03,01,10,15,5.20
2015,03,01,10,16,5.20
2015,03,01,10,17,5.20
2015,03,01,10,18,5.20
2015,03,01,10,19,5.20
2015,03,01,10,20,5.20
2015,03,01,10,21,5.20
2015,03,01,10,22,5.20
2015,03,01,10,23,5.20
2015,03,01,10,24,5.20
2015,03,01,10,25,5.20
2015,03,01,10,26,5.20
2015,03,01,10,27,5.30
2015,03,01,10,28,5.30
2015,03,01,10,29,5.30
2015,03,01,10,30,5.30
2015,03,01,10,31,5.30
2015,03,01,10,32,5.40
2015,03,01,10,33,5.40
2015,03,01,10,34,5.40
2015,03,01,10,35,5.40
2015,03,01,10,36,5.40
2015,03,01,10,37,5.40
2015,03,01,10,38,5.40
2015,03,01,10,39,5.40
2015,03,01,10,40,5.40
2015,03,01,10,41,5.40
2015,03,01,10,42,5.40
2015,03,01,10,43,5.40
2015,03,01,10,44,5.40
2015,03,01,10,45,5.40
2015,03,01,10,46,5.40
2015,03,01,10,47,5.50
2015,03,01,10,48,5.50
2015,03,01,10,49,5.60
2015,03,01,10,50,5.60
2015,03,01,10,51,5.70
2015,03,01,10,52,5.70
2015,03,01,10,53,5.70
2015,03,01,10,54,5.80
2015,03,01,10,55,5.80
2015,03,01,10,56,5.80
2015,03,01,10,57,5.80
2015,03,01,10,58,5.80
2015,03,01,10,59,5.80
2015,03,01,11,00,5.80
2015,03,01,11,01,5.90
2015,03,01,11,02,5.90
2015,03,01,11,03,5.90
2015,03,01,11,04,5.90
2015,03,01,11,05,6.00
2015,03,01,11,06,6.00
2015,03,01,11,07,6.00
2015,03,01,11,08,6.00
2015,03,01,11,09,6.10
2015,03,01,11,10,6.10
2015,03,01,11,11,6.20
2015,03,01,11,12,6.20
2015,03,01,11,13,6.20
2015,03,01,11,14,6.20
2015,03,01,11,15,6.30
2015,03,01,11,16,6.30
2015,03,01,11,17,6.30
2015,03,01,11,18,6.30
2015,03,01,11,19,6.40
2015,03,01,11,20,6.40
2015,03,01,11,21,6.40
2015,03,01,11,22,6.50
2015,03,01,11,23,6.50
2015,03,01,11,24,6.50
2015,03,01,11,25,6.50
2015,03,01,11,26,6.40
2015,03,01,11,27,6.40
2015,03,01,11,28,6.40
2015,03,01,11,29,6.40
2015,03,01,11,30,6.40
2015,03,01,11,31,6.30
2015,03,01,11,32,6.30
2015,03,01,11,33,6.30
2015,03,01,11,34,6.30
2015,03,01,11,35,6.30
2015,03,01,11,36,6.30
2015,03,01,11,37,6.30
2015,03,01,11,38,6.40
2015,03,01,11,39,6.40
2015,03,01,11,40,6.40
2015,03,01,11,41,6.40
2015,03,01,11,42,6.40
2015,03,01,11,43,6.40
2015,03,01,11,44,6.40
2015,03,01,11,45,6.40
2015,03,01,11,46,6.50
2015,03,01,11,47,6.50
2015,03,01,11,48,6.50
2015,03,01,11,49,6.60
2015,03,01,11,50,6.60
2015,03,01,11,51,6.70
2015,03,01,11,52,6.70
2015,03,01,11,53,6.80
2015,03,01,11,54,6.80
2015,03,01,11,55,6.80
2015,03,01,11,56,6.80
2015,03,01,11,57,6.80
2015,03,01,11,58,6.70
2015,03,01,11,59,6.70
2015,03,01,12,00,6.70
2015,03,01,12,01,6.70
2015,03,01,12,02,6.70
2015,03,01,12,03,6.70
2015,03,01,12,04,6.70
2015,03,01,12,05,6.80
2015,03,01,12,06,6.80
2015,03,01,12,07,6.80
2015,03,01,12,08,6.80
2015,03,01,12,09,6.80
2015,03,01,12,10,6.70
2015,03,01,12,11,6.70
2015,03,01,12,12,6.70
2015,03,01,12,13,6.70
2015,03,01,12,14,6.70
2015,03,01,12,15,6.70
2015,03,01,12,16,6.70
2015,03,01,12,17,6.70
2015,03,01,12,18,6.70
2015,03,01,12,19,6.80
2015,03,01,12,20,6.80
2015,03,01,12,21,6.80
2015,03,01,12,22,6.80
2015,03,01,12,23,6.80
2015,03,01,12,24,6.80
2015,03,01,12,25,6.80
2015,03,01,12,26,6.80
2015,03,01,12,27,6.90
2015,03,01,12,28,6.90
2015,03,01,12,29,6.90
2015,03,01,12,30,7.00
2015,03,01,12,31,7.00
2015,03,01,12,32,7.10
2015,03,01,12,33,7.10
2015,03,01,12,34,7.10
2015,03,01,12,35,7.00
2015,03,01,12,36,7.00
2015,03,01,12,37,7.00
2015,03,01,12,38,7.00
2015,03,01,12,39,7.00
2015,03,01,12,40,7.00
2015,03,01,12,41,7.10
2015,03,01,12,42,7.10
2015,03,01,12,43,7.10
2015,03,01,12,44,7.10
2015,03,01,12,45,7.10
2015,03,01,12,46,7.10
2015,03,01,12,47,7.10
2015,03,01,12,48,7.10
2015,03,01,12,49,7.10
2015,03,01,12,50,7.10
2015,03,01,12,51,7.10
2015,03,01,12,52,7.10
2015,03,01,12,53,7.10
2015,03,01,12,54,7.10
2015,03,01,12,55,7.10
2015,03,01,12,56,7.20
2015,03,01,12,57,7.20
2015,03,01,12,58,7.10
2015,03,01,12,59,7.10
2015,03,01,13,00,7.10
2015,03,01,13,01,7.10
2015,03,01,13,02,7.10
2015,03,01,13,03,7.10
2015,03,01,13,04,7.10
2015,03,01,13,05,7.10
2015,03,01,13,06,7.10
2015,03,01,13,07,7.10
2015,03,01,13,08,7.10
2015,03,01,13,09,7.10
2015,03,01,13,10,7.10
2015,03,01,13,11,7.10
2015,03,01,13,12,7.10
2015,03,01,13,13,7.10
2015,03,01,13,14,7.10
2015,03,01,13,15,7.10
2015,03,01,13,16,7.10
2015,03,01,13,17,7.10
2015,03,01,13,18,7.10
2015,03,01,13,19,7.10
2015,03,01,13,20,7.10
2015,03,01,13,21,7.10
2015,03,01,13,22,7.20
2015,03,01,13,23,7.20
2015,03,01,13,24,7.10
2015,03,01,13,25,7.10
2015,03,01,13,26,7.00
2015,03,01,13,27,7.00
2015,03,01,13,28,7.00
2015,03,01,13,29,6.90
2015,03,01,13,30,6.90
2015,03,01,13,31,6.80
2015,03,01,13,32,6.80
2015,03,01,13,33,6.80
2015,03,01,13,34,6.70
2015,03,01,13,35,6.70
2015,03,01,13,36,6.70
2015,03,01,13,37,6.60
2015,03,01,13,38,6.60
2015,03,01,13,39,6.60
2015,03,01,13,40,6.50
2015,03,01,13,41,6.50
2015,03,01,13,42,6.50
2015,03,01,13,43,6.40
2015,03,01,13,44,6.40
2015,03,01,13,45,6.40
2015,03,01,13,46,6.40
2015,03,01,13,47,6.40
2015,03,01,13,48,6.30
2015,03,01,13,49,6.30
2015,03,01,13,50,6.30
2015,03,01,13,51,6.30
2015,03,01,13,52,6.30
2015,03,01,13,53,6.30
2015,03,01,13,54,6.30
2015,03,01,13,55,6.20
2015,03,01,13,56,6.20
2015,03,01,13,57,6.20
2015,03,01,13,58,6.20
2015,03,01,13,59,6.10
2015,03,01,14,00,6.10
2015,03,01,14,01,6.00
2015,03,01,14,02,6.00
2015,03,01,14,03,5.90
2015,03,01,14,04,5.90
2015,03,01,14,05,5.90
2015,03,01,14,06,5.80
2015,03,01,14,07,5.80
2015,03,01,14,08,5.80
2015,03,01,14,09,5.80
2015,03,01,14,10,5.80
2015,03,01,14,11,5.80
2015,03,01,14,12,5.80
2015,03,01,14,13,5.80
2015,03,01,14,14,5.80
2015,03,01,14,15,5.70
2015,03,01,14,16,5.70
2015,03,01,14,17,5.70
2015,03,01,14,18,5.70
2015,03,01,14,19,5.70
2015,03,01,14,20,5.70
2015,03,01,14,21,5.70
2015,03,01,14,22,5.70
2015,03,01,14,23,5.70
2015,03,01,14,24,5.70
2015,03,01,14,25,5.70
2015,03,01,14,26,5.70
2015,03,01,14,27,5.70
2015,03,01,14,28,5.70
2015,03,01,14,29,5.60
2015,03,01,14,30,5.60
2015,03,01,14,31,5.60
2015,03,01,14,32,5.60
2015,03,01,14,33,5.60
2015,03,01,14,34,5.70
2015,03,01,14,35,5.70
2015,03,01,14,36,5.70
2015,03,01,14,37,5.70
2015,03,01,14,38,5.70
2015,03,01,14,39,5.70
2015,03,01,14,40,5.70
2015,03,01,14,41,5.70
2015,03,01,14,42,5.70
2015,03,01,14,43,5.70
2015,03,01,14,44,5.70
2015,03,01,14,45,5.70
2015,03,01,14,46,5.70
2015,03,01,14,47,5.70
2015,03,01,14,48,5.70
2015,03,01,14,49,5.70
2015,03,01,14,50,5.70
2015,03,01,14,51,5.70
2015,03,01,14,52,5.60
2015,03,01,14,53,5.60
2015,03,01,14,54,5.60
2015,03,01,14,55,5.60
2015,03,01,14,56,5.50
2015,03,01,14,57,5.50
2015,03,01,14,58,5.50
2015,03,01,14,59,5.40
2015,03,01,15,00,5.40
2015,03,01,15,01,5.40
2015,03,01,15,02,5.40
2015,03,01,15,03,5.40
2015,03,01,15,04,5.40
2015,03,01,15,05,5.40
2015,03,01,15,06,5.40
2015,03,01,15,07,5.40
2015,03,01,15,08,5.30
2015,03,01,15,09,5.30
2015,03,01,15,10,5.30
2015,03,01,15,11,5.40
2015,03,01,15,12,5.30
2015,03,01,15,13,5.30
2015,03,01,15,14,5.30
2015,03,01,15,15,5.30
2015,03,01,15,16,5.30
2015,03,01,15,17,5.30
2015,03,01,15,18,5.30
2015,03,01,15,19,5.30
2015,03,01,15,20,5.30
2015,03,01,15,21,5.30
2015,03,01,15,22,5.20
2015,03,01,15,23,5.20
2015,03,01,15,24,5.20
2015,03,01,15,25,5.20
2015,03,01,15,26,5.20
2015,03,01,15,27,5.20
2015,03,01,15,28,5.20
2015,03,01,15,29,5.20
2015,03,01,15,30,5.20
2015,03,01,15,31,5.20
2015,03,01,15,32,5.20
2015,03,01,15,33,5.20
2015,03,01,15,34,5.10
2015,03,01,15,35,5.10
2015,03,01,15,36,5.10
2015,03,01,15,37,5.10
2015,03,01,15,38,5.10
2015,03,01,15,39,5.10
2015,03,01,15,40,5.00
2015,03,01,15,41,5.10
2015,03,01,15,42,5.10
2015,03,01,15,43,5.10
2015,03,01,15,44,5.10
2015,03,01,15,45,5.10
2015,03,01,15,46,5.10
2015,03,01,15,47,5.10
2015,03,01,15,48,5.10
2015,03,01,15,49,5.10
2015,03,01,15,50,5.10
2015,03,01,15,51,5.10
2015,03,01,15,52,5.10
2015,03,01,15,53,5.10
2015,03,01,15,54,5.10
2015,03,01,15,55,5.10
2015,03,01,15,56,5.10
2015,03,01,15,57,5.10
2015,03,01,15,58,5.10
2015,03,01,15,59,5.10
2015,03,01,16,00,5.10
2015,03,01,16,01,5.10
2015,03,01,16,02,5.10
2015,03,01,16,03,5.10
2015,03,01,16,04,5.10
2015,03,01,16,05,5.20
2015,03,01,16,06,5.20
2015,03,01,16,07,5.20
2015,03,01,16,08,5.20
2015,03,01,16,09,5.20
2015,03,01,16,10,5.10
2015,03,01,16,11,5.10
2015,03,01,16,12,5.10
2015,03,01,16,13,5.10
2015,03,01,16,14,5.10
2015,03,01,16,15,5.10
2015,03,01,16,16,5.10
2015,03,01,16,17,5.10
2015,03,01,16,18,5.10
2015,03,01,16,19,5.10
2015,03,01,16,20,5.10
2015,03,01,16,21,5.10
2015,03,01,16,22,5.10
2015,03,01,16,23,5.10
2015,03,01,16,24,5.10
2015,03,01,16,25,5.10
2015,03,01,16,26,5.10
2015,03,01,16,27,5.10
2015,03,01,16,28,5.00
2015,03,01,16,29,5.00
2015,03,01,16,30,5.00
2015,03,01,16,31,5.00
2015,03,01,16,32,5.00
2015,03,01,16,33,5.00
2015,03,01,16,34,5.00
2015,03,01,16,35,5.00
2015,03,01,16,36,5.00
2015,03,01,16,37,5.00
2015,03,01,16,38,5.00
2015,03,01,16,39,4.90
2015,03,01,16,40,4.90
2015,03,01,16,41,4.90
2015,03,01,16,42,4.90
2015,03,01,16,43,4.90
2015,03,01,16,44,4.90
2015,03,01,16,45,4.90
2015,03,01,16,46,4.90
2015,03,01,16,47,4.90
2015,03,01,16,48,4.90
2015,03,01,16,49,4.90
2015,03,01,16,50,4.90
2015,03,01,16,51,4.90
2015,03,01,16,52,4.90
2015,03,01,16,53,4.90
2015,03,01,16,54,4.90
2015,03,01,16,55,4.90
2015,03,01,16,56,4.90
2015,03,01,16,57,4.90
2015,03,01,16,58,4.90
2015,03,01,16,59,4.90
2015,03,01,17,00,4.90
2015,03,01,17,01,4.90
2015,03,01,17,02,4.90
2015,03,01,17,03,4.90
2015,03,01,17,04,4.90
2015,03,01,17,05,4.90
2015,03,01,17,06,4.90
2015,03,01,17,07,4.90
2015,03,01,17,08,4.90
2015,03,01,17,09,4.90
2015,03,01,17,10,4.90
2015,03,01,17,11,4.90
2015,03,01,17,12,4.90
2015,03,01,17,13,4.90
2015,03,01,17,14,4.90
2015,03,01,17,15,4.90
2015,03,01,17,16,4.90
2015,03,01,17,17,4.90
2015,03,01,17,18,4.90
2015,03,01,17,19,4.90
2015,03,01,17,20,4.90
2015,03,01,17,21,4.90
2015,03,01,17,22,4.90
2015,03,01,17,23,4.90
2015,03,01,17,24,4.90
2015,03,01,17,25,4.90
2015,03,01,17,26,4.90
2015,03,01,17,27,4.90
2015,03,01,17,28,4.90
2015,03,01,17,29,4.90
2015,03,01,17,30,4.90
2015,03,01,17,31,4.90
2015,03,01,17,32,4.90
2015,03,01,17,33,4.90
2015,03,01,17,34,4.90
2015,03,01,17,35,4.90
2015,03,01,17,36,4.90
2015,03,01,17,37,4.90
2015,03,01,17,38,4.90
2015,03,01,17,39,4.90
2015,03,01,17,40,4.90
2015,03,01,17,41,4.90
2015,03,01,17,42,4.80
2015,03,01,17,43,4.80
2015,03,01,17,44,4.80
2015,03,01,17,45,4.90
2015,03,01,17,46,4.90
2015,03,01,17,47,4.90
2015,03,01,17,48,4.90
2015,03,01,17,49,4.90
2015,03,01,17,50,4.90
2015,03,01,17,51,4.90
2015,03,01,17,52,4.80
2015,03,01,17,53,4.80
2015,03,01,17,54,4.80
2015,03,01,17,55,4.80
2015,03,01,17,56,4.80
2015,03,01,17,57,4.80
2015,03,01,17,58,4.80
2015,03,01,17,59,4.80
2015,03,01,18,00,4.80
2015,03,01,18,01,4.80
2015,03,01,18,02,4.80
2015,03,01,18,03,4.80
2015,03,01,18,04,4.70
2015,03,01,18,05,4.70
2015,03,01,18,06,4.70
2015,03,01,18,07,4.70
2015,03,01,18,08,4.70
2015,03,01,18,09,4.70
2015,03,01,18,10,4.70
2015,03,01,18,11,4.70
2015,03,01,18,12,4.70
2015,03,01,18,13,4.70
2015,03,01,18,14,4.70
2015,03,01,18,15,4.70
2015,03,01,18,16,4.70
2015,03,01,18,17,4.70
2015,03,01,18,18,4.70
2015,03,01,18,19,4.60
2015,03,01,18,20,4.60
2015,03,01,18,21,4.60
2015,03,01,18,22,4.60
2015,03,01,18,23,4.60
2015,03,01,18,24,4.60
2015,03,01,18,25,4.60
2015,03,01,18,26,4.60
2015,03,01,18,27,4.60
2015,03,01,18,28,4.60
2015,03,01,18,29,4.60
2015,03,01,18,30,4.60
2015,03,01,18,31,4.60
2015,03,01,18,32,4.60
2015,03,01,18,33,4.60
2015,03,01,18,34,4.60
2015,03,01,18,35,4.60
2015,03,01,18,36,4.60
2015,03,01,18,37,4.60
2015,03,01,18,38,4.60
2015,03,01,18,39,4.60
2015,03,01,18,40,4.60
2015,03,01,18,41,4.60
2015,03,01,18,42,4.50
2015,03,01,18,43,4.50
2015,03,01,18,44,4.50
2015,03,01,18,45,4.50
2015,03,01,18,46,4.50
2015,03,01,18,47,4.50
2015,03,01,18,48,4.50
2015,03,01,18,49,4.50
2015,03,01,18,50,4.50
2015,03,01,18,51,4.50
2015,03,01,18,52,4.50
2015,03,01,18,53,4.40
2015,03,01,18,54,4.40
2015,03,01,18,55,4.40
2015,03,01,18,56,4.40
2015,03,01,18,57,4.40
2015,03,01,18,58,4.40
2015,03,01,18,59,4.40
2015,03,01,19,00,4.40
2015,03,01,19,01,4.40
2015,03,01,19,02,4.40
2015,03,01,19,03,4.40
2015,03,01,19,04,4.40
2015,03,01,19,05,4.40